ASTRA 1G (25071 NORAD) Tracking and Keplerian Element Data

This shows tracking and keplerian element data for the satellite.

Feedback or suggestion? Click here.




ElementValue
Catalog25071
NameASTRA 1G
Epoch Orbit9362
Epoch Day176.02509962
Epoch Year2023
RAAN64.363
Inclination6.9745
Eccentricity0.0003351
Argument of Perigee301.9155
Mean Anonmoly245.8372
Mean Motion0.99027836
Decay Rate-2.33E-06
L11 25071U 97076A 23176.02509962 -.00000233 00000+0 00000+0 0 9993
L22 25071 6.9745 64.3630 0003351 301.9155 245.8372 0.99027836 93621



Live tracking and technical data element details for ASTRA 1G (NORAD 25071). ASTRA 1G can be tracked NOW for your location showing map with azimuth and elevation plus other details from your city location.







IsCatalogInMostPopularTable: catalog: 25071, numindb: 379
Update: records affected: 1



GetName: 25071 ASTRA 1G

Hit Count: updated at: Thu, 15 May 2025 19:56:30 GMT